Beaufort, NC

3:57 PM EST on December 12, 2019 (GMT -0500)
Smith

Weather History for KMRH - October, 2019

Change the Weather History Date:

Sunday, October 13, 2019

  Actual Average Record
Temperature  
Mean Temperature 72 °F -  
Max Temperature 81 °F 76 °F 87 °F (1990)
Min Temperature 64 °F 53 °F 40 °F (1988)
Cooling Degree Days 7    
Growing Degree Days 22 (Base 50)    
Moisture  
Dew Point 67 °F    
Average Humidity 78    
Maximum Humidity 96    
Minimum Humidity 62    
Precipitation  
Precipitation 0.06 in - - ()
Sea Level Pressure  
Sea Level Pressure 30.06 in    
Wind  
Wind Speed 7 mph (SW)    
Max Wind Speed 13 mph    
Max Gust Speed -    
Visibility 10 miles    
Events Rain    
Averages and records for this station are not official NWS values.
T = Trace of Precipitation, MM = Missing Value Source: NWS Daily Summary

Daily Weather History Graph

Daily Weather History Graph

Search for Another Location

Airport or City:

Astronomy

Oct. 13, 2019 Rise Set
Actual Time 7:10 AM EDT 6:34 PM EDT
Civil Twilight 6:45 AM EDT 7:00 PM EDT
Nautical Twilight 6:15 AM EDT 7:29 PM EDT
Astronomical Twilight 5:46 AM EDT 7:58 PM EDT
Moon 6:54 PM EDT (10/13) 6:46 AM EDT (10/13)
Length of Visible Light 12h 14m
Length of Day
11h 24m
Full, 100% of the Moon is Illuminated
Oct 13
Full
Oct 13
Full
Oct 21
Last Quarter
Oct 27
New
Nov 4
First Quarter

Hourly Weather History & Observations

Time (EDT) Temp. Heat Index Dew Point Humidity Pressure Visibility Wind Dir Wind Speed Gust Speed Precip Events Conditions
12:58 AM 73.0 °F - 64.0 °F 73% 30.03 in 10.0 mi WSW 6.9 mph - N/A   Clear
1:58 AM 71.1 °F - 64.9 °F 81% 30.03 in 10.0 mi WNW 3.5 mph - N/A   Clear
2:58 AM 70.0 °F - 64.9 °F 84% 30.02 in 10.0 mi West 3.5 mph - N/A   Clear
3:58 AM 68.0 °F - 64.9 °F 90% 30.03 in 10.0 mi WNW 3.5 mph - N/A   Clear
4:58 AM 64.0 °F - 63.0 °F 96% 30.04 in 10.0 mi NW 3.5 mph - N/A   Clear
5:58 AM 64.0 °F - 63.0 °F 96% 30.05 in 10.0 mi NW 4.6 mph - N/A   Clear
6:58 AM 66.9 °F - 64.0 °F 90% 30.08 in 10.0 mi WNW 3.5 mph - N/A   Clear
7:58 AM 70.0 °F - 64.9 °F 84% 30.09 in 10.0 mi West 5.8 mph - N/A   Partly Cloudy
8:58 AM 71.1 °F - 64.9 °F 81% 30.10 in 10.0 mi WNW 3.5 mph - N/A   Clear
9:58 AM 77.0 °F - 66.9 °F 71% 30.10 in 10.0 mi SSW 5.8 mph - N/A   Partly Cloudy
10:58 AM 79.0 °F - 69.1 °F 72% 30.09 in 10.0 mi South 6.9 mph - N/A   Clear
11:58 AM 79.0 °F - 68.0 °F 69% 30.09 in 10.0 mi South 9.2 mph - N/A   Clear
12:58 PM 79.0 °F - 68.0 °F 69% 30.07 in 10.0 mi South 9.2 mph - N/A   Clear
1:58 PM 80.1 °F 82.3 °F 66.9 °F 64% 30.06 in 10.0 mi SSW 12.7 mph - N/A   Mostly Cloudy
2:58 PM 80.1 °F 82.1 °F 66.0 °F 62% 30.04 in 10.0 mi SSW 11.5 mph - N/A   Partly Cloudy
3:58 PM 80.1 °F 82.1 °F 66.0 °F 62% 30.04 in 10.0 mi South 10.4 mph - N/A   Clear
4:58 PM 77.0 °F - 66.9 °F 71% 30.04 in 10.0 mi South 10.4 mph - N/A   Scattered Clouds
5:58 PM 75.9 °F - 68.0 °F 76% 30.04 in 10.0 mi South 8.1 mph - N/A   Clear
6:58 PM 75.9 °F - 68.0 °F 76% 30.03 in 10.0 mi South 10.4 mph - N/A   Clear
7:58 PM 75.0 °F - 68.0 °F 79% 30.04 in 10.0 mi South 10.4 mph - N/A   Partly Cloudy
8:58 PM 75.0 °F - 69.1 °F 82% 30.04 in 10.0 mi SSW 9.2 mph - N/A   Partly Cloudy
9:58 PM 75.9 °F - 70.0 °F 82% 30.05 in 10.0 mi SSW 11.5 mph - N/A   Mostly Cloudy
10:58 PM 75.9 °F - 69.1 °F 79% 30.06 in 10.0 mi SW 11.5 mph - 0.00 in Rain Light Rain
11:58 PM 73.0 °F - 70.0 °F 90% 30.06 in 10.0 mi WSW 8.1 mph - 0.06 in Rain Light Rain